www.pogodaiklimat.ru
ПОГОДА в Сьерра-Висте
Время
и дата
11:55 06.02
12:21 06.02
12:47 06.02
12:55 06.02
13:28 06.02
13:55 06.02
14:55 06.02
15:48 06.02
15:55 06.02
16:05 06.02
16:48 06.02
16:55 06.02
17:20 06.02
17:55 06.02
18:21 06.02
18:55 06.02
19:37 06.02
19:52 06.02
19:55 06.02
20:55 06.02
21:55 06.02
22:55 06.02
23:55 06.02
00:55 07.02
01:55 07.02
02:55 07.02
03:55 07.02
04:55 07.02
05:55 07.02
06:26 07.02
06:55 07.02
07:43 07.02
07:55 07.02
08:50 07.02
08:55 07.02
10:55 07.02
11:55 07.02
12:32 07.02
12:55 07.02
13:55 07.02
14:55 07.02
15:55 07.02
15:56 07.02
16:55 07.02
17:47 07.02
17:55 07.02
18:46 07.02
18:55 07.02
Ветер
(напр.,м/с)
Видим. Явления Облачность Т
(С)
Тd
(С)
f
(%)
Тe
(С)
Тes
(С)
Комфортность P
(гПа)
Po
(гПа)
Тmin
(С)
Tmax
(С)
R
(мм)
R24
(мм)
S
(см)
ЮЗ 6
{11}
16 км ясно +14.0 -11.5 16 +12 +16 1013.8 854.4
З 7 16 км ясно +15.0 -9.0 18 +13 +16 1012.1 853.8
З 8
{11}
16 км ясно +15.0 -8.0 20 +13 +15 1011.4 853.2
З 12
{15}
16 км ясно +14.7 -8.0 20 +12 +12 1011.7 853.2
З 8
{12}
16 км ясно +15.0 -8.0 20 +13 +15 1010.7 852.6
З 9
{11}
16 км ясно +14.8 -8.0 20 +13 +14 1011.4 852.6
З 10
{14}
16 км ясно +14.3 -9.0 19 +12 +12 1011.4 852.6
З 9
{11}
16 км ясно +14.0 -11.0 17 +12 +12 1011.4 852.9
З 10
{12}
16 км ясно +13.4 -11.2 17 +11 +11 1012.1 852.9
СЗ 10
{13}
16 км ясно +13.0 -11.0 18 +10 +10 1012.4 852.9
СЗ 9
{12}
16 км ясно +11.0 -11.0 20 +8 +8 1013.5 853.5
СЗ 9 16 км ясно +10.5 -10.9 21 +7 +8 1013.5 853.5 +10.5 +15.1
СЗ 9
{13}
14 км ясно +10.0 -10.0 23 +7 +7 1014.2 854.1
СЗ 8 13 км ясно +8.0 -10.4 26 +4 +4 1015.6 854.4
СЗ 8 16 км ясно +7.0 -10.0 29 +3 +3 1016.3 854.9
З 6
{9}
13 км ясно +6.4 -9.1 32 +3 +3 1016.6 855.2
З 6 13 км ясно +5.0 -9.0 36 +1 +1 1018.1 855.8
СЗ 2 13 км ясно +4.0 -8.0 41 +2 +2 1018.4 856.4
СЗ 2 13 км ясно +4.4 -8.7 38 +3 +3 1018.4 856.4
З 3
{9}
11 км ясно +5.0 -7.5 40 +2 +2 1017.3 856.4
З 3 13 км ясно +3.3 -6.7 48 0 0 1017.7 856.6
ЮЗ 4 16 км ясно +3.1 -6.3 50 -1 -1 1017.7 856.6 +2.9 +10.4
З 4 16 км ясно +3.1 -6.9 48 -1 -1 1017.3 856.6
З 4 16 км ясно +2.2 -6.6 52 -2 -2 1017.7 856.6
З 5 16 км ясно +2.5 -6.6 51 -2 -2 1017.3 856.6
З 3 16 км ясно +2.0 -6.8 52 -2 -2 1017.7 856.6
З 4 16 км ясно +1.5 -7.1 53 -3 -3 1018.0 856.9
З 5 16 км ясно +1.4 -7.6 51 -4 -4 1018.7 856.9 +1.3 +3.6
З 2 16 км ясно +2.2 -7.2 50 0 0 1019.4 857.2
З 5 16 км ясно +1.0 -7.0 55 -4 -4 1020.5 857.8
З 4 16 км ясно +0.8 -6.8 57 -4 -4 1020.9 858.1
З 5 13 км ясно +2.0 -8.0 47 -3 -3 1021.9 858.6
З 4 14 км ясно +2.8 -8.3 44 -1 -1 1021.6 858.6
З 4 16 км ясно +5.0 -9.0 36 +2 +2 1021.9 859.2
З 4 16 км ясно +4.7 -9.1 36 +1 +2 1021.9 859.2
СВ 3 16 км ясно +7.3 -10.0 28 +5 +11 1022.2 859.5 -0.4 +7.6
СЗ 2 16 км ясно +8.4 -11.6 23 +7 +16 опасность
простуды
1021.5 859.2
штиль 0 16 км ясно +9.0 -13.0 20 +9 +23 опасность
простуды
1020.8 858.6
С 2 16 км ясно +9.7 -12.8 19 +9 +19 опасность
простуды
1020.8 858.6
СЗ 4 16 км ясно +10.5 -12.9 18 +9 +16 1020.1 858.3
СЗ 2 16 км ясно +10.6 -14.2 16 +10 +18 1020.1 858.3
СЗ 5
{8}
16 км ясно +10.8 -13.3 17 +9 +12 1020.5 858.3
С 6
{8}
16 км ясно +11.0 -13.0 17 +9 +11 1020.8 858.6
С 5 14 км ясно +10.0 -12.6 19 +8 +9 1021.2 858.9 +7.1 +10.9
С 4 13 км ясно +9.0 -13.0 20 +7 +7 1022.2 859.5
С 3 11 км ясно +8.2 -12.9 21 +7 +7 1022.2 859.5
СЗ 3 13 км ясно +6.0 -13.0 24 +4 +4 1023.7 860.1
СЗ 3 14 км ясно +5.1 -11.9 28 +3 +3 1023.7 860.1
Местоположение метеостанции Sierra Vista Municipal Airport: широта 31.5833 долгота -110.3333 высота над уровнем моря 1438 м.
В архиве по умолчанию представлена погода в Сьерра-Висте за последние 1-2 суток. Обновление информации о фактической погоде в базе происходит ежечасно! Архивные данные за месяц целиком и за предыдущие месяцы Вы можете получить, выбрав интересующий диапазон дат из раскрывающегося списка и нажав кнопку "Ввод!".
Внимание! Архив погоды МЕТАР в базе сайта по станциям, не включенным в климатический монитор, хранится не более 60 дней. Нет смысла пытаться выбрать более раннюю дату.
*Определитесь, кто Вы:
Внимание! Время в таблицах - местное (без учета летнего времени). Для получения всемирного времени необходимо вычесть поправку, которая равна -7 ч.
Смотрите также архив погоды в соседних городах и на ближайших метеорологических станциях:
Партнеры нашего сайта:      
Пояснения к столбцам:
  • Ветер - указаны скорость ветра в м/с - средняя за 10 мин, порывы в срок и между сроками (в фигурных скобках) и направление, откуда дует ветер: С - северный,
  • СВ - северо-восточный, В - восточный, ЮВ - юго-восточный, Ю - южный, ЮЗ - юго-западный, З - западный, СЗ - северо-западный.
  • Видимость - горизонтальная дальность видимости в метрах или километрах. При видимости от 1 до 10 км при отсутствии осадков обычно наблюдается дымка, при ухудшении видимости до 1 км и менее - туман. В сухую погоду видимость может ухудшаться дымом, пылью или мглою.
  • Явления - указаны атмосферные явления, наблюдавшиеся в срок или в последний час перед сроком; фигурными скобками обозначены явления, наблюдавшиеся между сроками (за 1-3 часа до срока); квадратными скобками обозначены град или гололедные отложения с указанием их диаметра в мм.
  • Облачность - указаны через наклонную черту общая и нижняя облачность в баллах и высота нижней границы облаков в метрах; квадратными скобками обозначены формы облаков: Ci - перистые, Cs - перисто-слоистые, Cc - перисто-кучевые, Ac - высококучевые, As - высокослоистые, Sc - слоисто-кучевые, Ns - слоисто-дождевые, Cu - кучевые, Cb - кучево-дождевые. Подробнее классификацию облаков см. в Атласе облаков (PDF).
  • T - Температура воздуха - температура, измеренная на высоте 2 м над землей.
  • Td - Температура точки росы - температура, при понижении до которой содержащийся в воздухе водяной пар достигнет насыщения.
  • f - Относительная влажность воздуха - влажноcть воздуха, измеренная на высоте 2 м над землей.
  • Te - Эффективная температура - температура, которую ощущает одетый по сезону человек в тени. Характеристика душности погоды. При расчете учитывается влияние влажности воздуха и скорости ветра на теплоощущения человека.
  • Tes - Эффективная температура на солнце - температура, которую ощущает человек, с поправкой на солнечный нагрев. Характеристика знойности погоды. Зависит от высоты солнца над горизонтом, облачности и скорости ветра. Ночью, в пасмурную погоду, а также при ветре 12 м/с и более поправка равна нулю.
  • P - Атмосферное давление - приведенное к уровню моря атмосферное давление.
  • Po - Атмосферное давление - измеренное на уровне метеостанции атмосферное давление.
  • Tmin - Минимальная температура - минимум температуры воздуха на высоте 2 м над землей.
  • Tmax - Максимальная температура - максимум температуры воздуха на высоте 2 м над землей.
  • R - Количество осадков - Количество выпавших осадков за период времени, мм. При наведении курсора мыши на число - период времени, за который выпало указанное количество осадков.
  • R24 - Количество осадков - Количество выпавших осадков за 24 часа, мм.
  • S - Снежный покров - Высота снежного покрова, см. При наведении курсора мыши на число - состояние снежного покрова и степень покрытия местности в баллах.